Location: *
(43.4667°N, 11.6833°E)
Time: 20:29:18
(UTC+00:00)

BREEZE-M DEB (TANK) - Pass Details

Date: 19 July 2019
Orbit: 696 x 22233 km, 51.1° (Epoch: 25 August)

Event Time Altitude Azimuth Distance (km) Brightness Sun altitude
Rises 20:30:52 0° 218° (SW) 3,530 6.3 -15.0°
Reaches altitude 10° 20:33:27 10° 212° (SSW) 2,259 5.3 -15.3°
Maximum altitude 20:37:23 45° 137° (SE) 965 3.1 -15.8°
Drops below altitude 10° 20:42:21 10° 64° (ENE) 2,842 5.8 -16.3°
Sets 20:46:04 0° 58° (ENE) 4,653 7.0 -16.7°
